"Pseudo-MPEC" for DH4N126

Created 2024 Nov 22 17:31:07 UT using Find_Orb

Click here for an explanation of pseudo-MPECs

 
 Astrometry: 
     DH4N126*0B2024 10 31.88926203 32 04.350+06 13 02.50   ~B2HV 20.1 VZNEOCPM49
     DH4N126 0B2024 10 31.89628103 32 04.817+06 13 02.19   ~B2HV 20.1 VZNEOCPM49
     DH4N126 0B2024 10 31.90330203 32 05.227+06 13 01.17   ~B2HV 20.6 VZNEOCPM49

Station data:
(M49) IAS Remote Observatory, Hakos  (S23.236549 E16.361720)  Namibia.
   Observers D. Husar, M. Junius. Measurer D. Husar. 0.25-m f/4.6 reflector +
   CCD.

Orbital elements:  DH4N126
   Perihelion 2025 Jan 2.50615 +/- 39.2 TT = 12:08:51 (JD 2460678.00615)
Epoch 2024 Nov  1.0 TT = JDT 2460615.5   Earth MOID: 0.0001   Ma: 0.0571
M 337.77198476 +/- 19               (J2000 ecliptic)             AutoNEOCP
n   0.35561322 +/- 0.293            Peri.   41.41178 +/- 90
a   1.97310764 +/- 1.08             Node    72.70275 +/- 58
e   0.5448221 +/- 0.247             Incl.    4.23619 +/- 2.8
P   2.77157                H 22.37  G  0.15   U 11.9  SR
q 0.89811487 +/- 0.302    Q 3.04810042 +/- 55.7
From 3 observations 2024 Oct. 31 (20.2 min); mean residual 0".18
Residuals in arcseconds: 
241031 M49  .13-  .12-    241031 M49  .27+  .23+    241031 M49  .14-  .12-    

Ephemerides (geocentric):
Date (UTC) HH   RA             Dec           delta  r     elong  mag " sig PA
---- --------  ------------   ------------  ------ ------ -----  --- --------
2024 11 22 18  04 55 48.182   +07 43 33.90  .05964 1.0439 160.4 17.3  74d  86
2024 11 22 19  04 56 19.599   +07 44 22.75  .05939 1.0437 160.4 17.3  74d  86
2024 11 22 20  04 56 51.277   +07 45 11.93  .05914 1.0434 160.3 17.3  74d  86
2024 11 22 21  04 57 23.219   +07 46 01.44  .05889 1.0431 160.2 17.3  74d  86
2024 11 22 22  04 57 55.429   +07 46 51.27  .05864 1.0429 160.2 17.3  74d  86
2024 11 22 23  04 58 27.909   +07 47 41.44  .05840 1.0426 160.1 17.3  74d  86
2024 11 23 00  04 59 00.661   +07 48 31.93  .05815 1.0423 160.1 17.2  74d  86
2024 11 23 01  04 59 33.691   +07 49 22.76  .05790 1.0421 160.0 17.2  74d  86
2024 11 23 02  05 00 07.000   +07 50 13.92  .05765 1.0418 159.9 17.2  74d  86
2024 11 23 03  05 00 40.591   +07 51 05.41  .05741 1.0416 159.8 17.2  74d  86
2024 11 23 04  05 01 14.468   +07 51 57.24  .05716 1.0413 159.8 17.2  75d  86
2024 11 23 05  05 01 48.635   +07 52 49.40  .05692 1.0410 159.7 17.2  75d  86
2024 11 23 06  05 02 23.094   +07 53 41.90  .05667 1.0408 159.6 17.2  75d  86
2024 11 23 07  05 02 57.848   +07 54 34.74  .05643 1.0405 159.6 17.2  75d  86
2024 11 23 08  05 03 32.902   +07 55 27.92  .05618 1.0402 159.5 17.2  75d  86
2024 11 23 09  05 04 08.259   +07 56 21.43  .05594 1.0400 159.4 17.2  75d  86
2024 11 23 10  05 04 43.921   +07 57 15.29  .05570 1.0397 159.3 17.2  75d  86
2024 11 23 11  05 05 19.893   +07 58 09.48  .05545 1.0395 159.3 17.2  75d  86
2024 11 23 12  05 05 56.179   +07 59 04.02  .05521 1.0392 159.2 17.2  75d  86
2024 11 23 13  05 06 32.781   +07 59 58.89  .05497 1.0389 159.1 17.1  75d  86
2024 11 23 14  05 07 09.703   +08 00 54.11  .05473 1.0387 159.0 17.1  75d  86
2024 11 23 15  05 07 46.949   +08 01 49.67  .05449 1.0384 158.9 17.1  75d  86
2024 11 23 16  05 08 24.524   +08 02 45.57  .05424 1.0382 158.9 17.1  75d  86
2024 11 23 17  05 09 02.430   +08 03 41.81  .05400 1.0379 158.8 17.1  75d  86
2024 11 23 18  05 09 40.671   +08 04 38.40  .05376 1.0376 158.7 17.1  75d  86
2024 11 23 19  05 10 19.252   +08 05 35.33  .05352 1.0374 158.6 17.1  75d  86
2024 11 23 20  05 10 58.177   +08 06 32.60  .05329 1.0371 158.5 17.1  75d  86
2024 11 23 21  05 11 37.448   +08 07 30.21  .05305 1.0368 158.4 17.1  75d  86
2024 11 23 22  05 12 17.071   +08 08 28.17  .05281 1.0366 158.3 17.1  75d  86
2024 11 23 23  05 12 57.049   +08 09 26.46  .05257 1.0363 158.2 17.1  75d  86
2024 11 24 00  05 13 37.387   +08 10 25.10  .05233 1.0361 158.1 17.1  75d  86
2024 11 24 01  05 14 18.089   +08 11 24.08  .05210 1.0358 158.1 17.1  75d  86
2024 11 24 02  05 14 59.158   +08 12 23.39  .05186 1.0356 158.0 17.1  75d  86
2024 11 24 03  05 15 40.600   +08 13 23.05  .05163 1.0353 157.9 17.0  75d  86
2024 11 24 04  05 16 22.419   +08 14 23.05  .05139 1.0350 157.8 17.0  75d  86
2024 11 24 05  05 17 04.618   +08 15 23.38  .05116 1.0348 157.7 17.0  75d  86
2024 11 24 06  05 17 47.203   +08 16 24.05  .05092 1.0345 157.6 17.0  75d  86
2024 11 24 07  05 18 30.178   +08 17 25.05  .05069 1.0343 157.5 17.0  75d  86
2024 11 24 08  05 19 13.547   +08 18 26.39  .05046 1.0340 157.3 17.0  75d  86
2024 11 24 09  05 19 57.315   +08 19 28.05  .05022 1.0337 157.2 17.0  75d  86
2024 11 24 10  05 20 41.487   +08 20 30.05  .04999 1.0335 157.1 17.0  75d  86
2024 11 24 11  05 21 26.068   +08 21 32.38  .04976 1.0332 157.0 17.0  75d  86
2024 11 24 12  05 22 11.061   +08 22 35.03  .04953 1.0330 156.9 17.0  74d  86
2024 11 24 13  05 22 56.473   +08 23 38.00  .04930 1.0327 156.8 17.0  74d  86
2024 11 24 14  05 23 42.308   +08 24 41.30  .04907 1.0325 156.7 17.0  74d  86
2024 11 24 15  05 24 28.570   +08 25 44.92  .04884 1.0322 156.6 17.0  74d  86
2024 11 24 16  05 25 15.265   +08 26 48.85  .04861 1.0319 156.4 16.9  74d  86
2024 11 24 17  05 26 02.398   +08 27 53.10  .04838 1.0317 156.3 16.9  74d  86